MPEC 2006-F34 : 2006 FW

The following Minor Planet Electronic Circular may be linked-to from your own Web pages, but must not otherwise be redistributed electronically.


Read MPEC 2006-F33 Read MPEC 2006-F35


M.P.E.C. 2006-F34                                Issued 2006 Mar. 25, 21:29 UT

     The Minor Planet Electronic Circulars contain information on unusual
         minor planets and routine data on comets.  They are published
   on behalf of Commission 20 of the International Astronomical Union by the
          Minor Planet Center, Smithsonian Astrophysical Observatory,
                          Cambridge, MA 02138, U.S.A.

                  Supported in part by the Brinson Foundation
                  Supported in part by the TABASGO Foundation
             Prepared using the Tamkin Foundation Computer Network

                              MPC@CFA.HARVARD.EDU
          URL http://cfa-www.harvard.edu/iau/mpc.html  ISSN 1523-6714

                                    2006 FW

Observations:
     K06F00W* C2006 03 24.21664 10 25 53.50 +09 46 49.7          21.6 V EF034G96
     K06F00W  C2006 03 24.22295 10 25 54.22 +09 47 05.9          21.9 V EF034G96
     K06F00W  C2006 03 24.22926 10 25 54.84 +09 47 23.4          21.5 V EF034G96
     K06F00W  C2006 03 24.23510 10 25 55.52 +09 47 39.3          21.3 V EF034G96
     K06F00W  C2006 03 24.26045 10 25 58.33 +09 48 47.4          21.0 V EF034G96
     K06F00W  C2006 03 24.26706 10 25 59.05 +09 49 05.7          21.8 V EF034G96
     K06F00W  C2006 03 24.27355 10 25 59.77 +09 49 21.7          21.3 V EF034G96
     K06F00W  C2006 03 24.28006 10 26 00.49 +09 49 39.4          20.8 V EF034G96
     K06F00W  C2006 03 24.34290 10 26 07.45 +09 52 26.0          21.4 V EF034G96
     K06F00W  C2006 03 24.34381 10 26 07.55 +09 52 28.7          20.9 V EF034G96
     K06F00W  C2006 03 24.34469 10 26 07.59 +09 52 30.8          20.9 V EF034G96
     K06F00W  C2006 03 25.18836 10 27 51.77 +10 28 49.7                 EF034291
     K06F00W  C2006 03 25.19230 10 27 52.10 +10 28 58.6                 EF034291
     K06F00W  C2006 03 25.19786 10 27 52.76 +10 29 12.3                 EF034291
     K06F00W  C2006 03 25.32742 10 28 06.52 +10 34 34.5          20.9 V EF034G96
     K06F00W  C2006 03 25.32830 10 28 06.63 +10 34 36.8          21.5 V EF034G96
     K06F00W  C2006 03 25.32919 10 28 06.67 +10 34 38.1          21.1 V EF034G96
     K06F00W  C2006 03 25.33007 10 28 06.81 +10 34 41.3          20.5 V EF034G96

Observer details:
291 LPL/Spacewatch II.  Observers T. H. Bressi, M. T. Read, A. F. Tubbiolo.
    1.8-m f/2.7 reflector + CCD.
G96 Mt. Lemmon Survey.  Observer E. J. Christensen.  Measurers E. C. Beshore,
    E. J. Christensen, G. J. Garradd, A. R. Gibbs, A. D. Grauer, R. E. Hill,
    R. A. Kowalski, S. M. Larson, R. H. McNaught.  1.5-m reflector + CCD.

Orbital elements:
2006 FW                                                  Earth MOID = 0.0643 AU
Epoch 2006 Mar. 6.0 TT = JDT 2453800.5                  MPC
M  41.10525              (2000.0)            P               Q
n   0.62446128     Peri.  264.27576     +0.13309086     -0.99107098
a   1.3556025      Node   178.02098     +0.97643897     +0.12972148
e   0.3776169      Incl.   13.51639     +0.16986397     +0.03083276
P   1.58           H   22.8           G   0.15
From 18 observations 2006 Mar. 24-25.

Ephemeris:
2006 FW                  a,e,i = 1.36, 0.38, 14                  q = 0.8437
Date    TT    R. A. (2000) Decl.     Delta      r     Elong.  Phase     V
2006 03 16    10 06.01   +01 23.9    0.177    1.158   155.9    20.5    20.4
2006 03 26    10 29.45   +11 01.8    0.248    1.218   149.8    24.3    21.3
2006 04 05    10 46.77   +15 36.2    0.332    1.277   141.6    29.1    22.2

Brian G. Marsden             (C) Copyright 2006 MPC           M.P.E.C. 2006-F34

Read MPEC 2006-F33 Read MPEC 2006-F35


Our Web policy. Index to the CBAT/MPC/ICQ pages.

MPC

Valid HTML 4.01!